Back to catalog

SL-8 DEB *

AliveLEO
NORAD 3045·DEBRIS·🇷🇺 Russia

Launched Sep 3, 1965 from Baikonur Cosmodrome

Loading…

Next Passes (next 24 hours)

TLE

FreshSource: Space-Track

Epoch: Sep 14, 2026, 07:47 UTC

1 03045U 65070G   26257.32462231  .00000563  00000-0  39835-2 0  9999
2 03045  55.4327 358.3662 0290916 291.4329 101.4517 12.44648405700037

Track SL-8 DEB * in real time with AllMySat

Download on the App Store